Preview of NWS' New Version of Forecast
This preview is not operational and should not be used for support decisions.

Regional Weather Roundup (RWR)

Issued by National Weather Service (NWS)

                            
000
ASUS46 KSEW 190910
RWRWA 

WASHINGTON REGIONAL WEATHER ROUNDUP
NATIONAL WEATHER SERVICE SEATTLE WA
100 AM PST TUE FEB 19 2019

NOTE:"FAIR" INDICATES FEW OR NO CLOUDS BELOW 12,000 FEET WITH NO 
SIGNIFICANT WEATHER AND/OR OBSTRUCTIONS TO VISIBILITY.

WAZ507-509-555>559-191000-
SEATTLE, TACOMA, EVERETT, AND VICINITY
  
CITY           SKY/WX    TMP DP  RH WIND       PRES   REMARKS
EVERETT        LGT RAIN  36  33  89 E3        30.29S                  
BOEING FIELD   CLOUDY    39  35  86 SE5       30.31S                  
RENTON         CLOUDY    39  35  86 SE3       30.31S                  
SEATAC AIRPORT CLOUDY    40  36  86 S6        30.29S                  
JBLM-MCCHORD   CLOUDY    37  37 100 S6        30.30F                  
PUYALLUP       CLOUDY    37  37 100 CALM      30.30S                  
BREMERTON      FOG       34  34 100 CALM      30.29  VSB 1/2          
JBLM-FT LEWIS  NOT AVBL                                               
TACOMA NARROWS CLOUDY    38  35  89 S7        30.30F                  
$$
 
WAZ001-503-506-510-514-515-191000-
NORTH INTERIOR
  
CITY           SKY/WX    TMP DP  RH WIND       PRES   REMARKS
BELLINGHAM     CLOUDY    32  23  69 CALM      30.30S                  
FRIDAY HARBOR  LGT RAIN  37  34  89 CALM      30.31S                  
EASTSOUND      CLOUDY    36  36 100 S6        30.29F                  
PORT ANGELES   PTCLDY    32  30  92 SW5       30.29F                  
EDIZ HOOK      CLOUDY    38  35  88 CALM      30.30F                  
PORT TOWNSEND  CLOUDY    36  36 100 CALM      30.29F FOG              
NAS WHIDBEY    CLOUDY    40  34  79 SE6       30.34F                  
ARLINGTON      CLOUDY    33  31  92 N3        30.31F                  
BURLINGTON     CLOUDY    34  28  80 CALM      30.31F                  
$$
 
WAZ020-022-039-040-504-511-512-191000-
SOUTHWEST INTERIOR
  
CITY           SKY/WX    TMP DP  RH WIND       PRES   REMARKS
SHELTON        MOCLDY    31  29  92 CALM      30.28S FOG              
OLYMPIA        CLOUDY    38  35  89 S7        30.31F                  
CHEHALIS       CLOUDY    39  37  93 S5        30.32F                  
KELSO          CLOUDY    38  36  92 SE5       30.36S                  
VANCOUVER      CLOUDY    39  35  86 CALM      30.35F                  
SCAPPOOSE, OR  CLOUDY    38  36  92 CALM      30.35F FOG              
PORTLAND, OR   CLOUDY    38  35  89 SE7       30.36F                  
$$
 
WAZ021-516-517-191000-
WASHINGTON COAST
  
CITY           SKY/WX    TMP DP  RH WIND       PRES   REMARKS
FORKS          CLOUDY    37  34  89 E5        30.30S                  
HOQUIAM        CLOUDY    39  38  96 E3        30.32F                  
ASTORIA, OR    CLOUDY    38  37  97 S6        30.33F                  
$$
 
WAZ019-023-024-040-567>569-191000-
CASCADE MOUNTAINS AND COLUMBIA GORGE
  
CITY           SKY/WX    TMP DP  RH WIND       PRES   REMARKS
STAMPEDE PASS  CLOUDY    26  23  88 W8        30.11S FOG              
TROUTDALE, OR  CLOUDY    39  36  89 CALM      30.36F                  
HOOD RIVER, OR SUNNY     37  32  81 W10G18    30.28F                  
THE DALLES, OR PTCLDY    35  27  72 SW5       30.28F                  
$$

WAZ026-027-041>044-520-521-191000-
EAST SLOPES
  
CITY           SKY/WX    TMP DP  RH WIND       PRES   REMARKS
OMAK           CLEAR     11   7  84 MISG      30.25S                  
WENATCHEE      CLEAR     15  10  80 E8        30.22F                  
ELLENSBURG     PTCLDY    16  12  84 E5        30.18F                  
YAKIMA         CLEAR     12   8  84 W6        30.25F                  
SUNNYSIDE ARPT SUNNY     16  14  93 CALM      30.28F                  
YAKIMA TC      FAIR      16  13  90 CALM      30.20F                  
$$

WAZ028-034-035-191000-
COLUMBIA BASIN
  
CITY           SKY/WX    TMP DP  RH WIND       PRES   REMARKS
EPHRATA        CLEAR     11   6  81 N6        30.23F                  
MOSES LAKE     CLEAR    N/A N/A N/A N8        30.25F                  
PASCO          CLOUDY    19  16  88 CALM      30.30F                  
RICHLAND ARPT  CLOUDY    21  18  89 CALM      30.30F                  
HERMISTON, OR  NOT AVBL                                               
$$

WAZ036>038-191000-
NORTHEAST WASHINGTON
  
CITY           SKY/WX    TMP DP  RH WIND       PRES   REMARKS
SPOKANE GEIGER MOCLDY    12   5  73 S6        30.16F                  
SPOKANE FELTS  CLOUDY    14  10  84 NE3       30.21F                  
FAIRCHILD AFB  NOT AVBL                                               
COEURDALENE,ID MOCLDY     5   3  91 CALM      30.18F                  
DEER PARK      CLOUDY     8   4  83 CALM      30.19F                  
$$

WAZ029>033-191000-
SOUTHEAST WASHINGTON
  
CITY           SKY/WX    TMP DP  RH WIND       PRES   REMARKS
PULLMAN        CLOUDY    16  11  80 E6        30.19F                  
LEWISTON, ID   CLOUDY    24  20  84 S5        30.25F                  
WALLA WALLA    CLOUDY    27  21  78 SE5       30.24F                  
PENDLETON, OR  NOT AVBL                                               
$$